Osceola, WI

3:15 PM CDT on April 21, 2018 (GMT -0500)
Simenstad Municipal

Weather History for KOEO - April, 2014

Change the Weather History Date:

Tuesday, April 8, 2014

  Actual Average (KANE) Record (KANE)
Temperature  
Mean Temperature 40 °F -  
Max Temperature 50 °F 49 °F 71 °F (2017)
Min Temperature 30 °F 31 °F 8 °F (1997)
Degree Days  
Heating Degree Days 25    
Moisture  
Dew Point 28 °F    
Average Humidity 63    
Maximum Humidity 82    
Minimum Humidity 38    
Precipitation  
Precipitation 0.00 in - - ()
Sea Level Pressure  
Sea Level Pressure 29.94 in    
Wind  
Wind Speed 7 mph (NW)    
Max Wind Speed 14 mph    
Max Gust Speed 21 mph    
Visibility 10 miles    
Events      
Averages and records for this station are not official NWS values.
T = Trace of Precipitation, MM = Missing Value Source: NWS Daily Summary

Daily Weather History Graph

Daily Weather History Graph

Search for Another Location

Airport or City:

Astronomy

Apr. 08, 2014 Rise Set
Actual Time 6:38 AM CDT 7:47 PM CDT
Civil Twilight 6:07 AM CDT 8:18 PM CDT
Nautical Twilight 5:31 AM CDT 8:54 PM CDT
Astronomical Twilight 4:53 AM CDT 9:33 PM CDT
Moon 1:25 PM CDT (4/8) 3:07 AM CDT (4/8)
Length of Visible Light 14h 10m
Length of Day
13h 09m
Waxing Gibbous, 63% of the Moon is Illuminated
Apr 8
Waxing Gibbous
Apr 15
Full
Apr 22
Last Quarter
Apr 29
New
May 6
First Quarter

Hourly Weather History & Observations

Time (CDT) Temp. Windchill Dew Point Humidity Pressure Visibility Wind Dir Wind Speed Gust Speed Precip Events Conditions
12:15 AM 40.3 °F 37.1 °F 26.2 °F 57% 29.82 in 10.0 mi NNW 4.6 mph - N/A   Clear
12:35 AM 39.7 °F 36.5 °F 25.9 °F 58% 29.83 in 10.0 mi NNW 4.6 mph - N/A   Clear
12:55 AM 39.0 °F - 26.2 °F 60% 29.84 in 10.0 mi Calm Calm - N/A   Clear
1:15 AM 39.2 °F - 25.7 °F 58% 29.84 in 10.0 mi Calm Calm - N/A   Clear
1:35 AM 38.5 °F 36.1 °F 26.4 °F 62% 29.83 in 10.0 mi NW 3.5 mph - N/A   Clear
1:55 AM 37.8 °F 32.5 °F 27.1 °F 66% 29.83 in 10.0 mi NW 6.9 mph - N/A   Clear
2:15 AM 37.6 °F 32.3 °F 27.1 °F 66% 29.83 in 10.0 mi NW 6.9 mph - N/A   Clear
2:35 AM 36.7 °F 32.0 °F 27.1 °F 68% 29.83 in 10.0 mi NW 5.8 mph - N/A   Clear
2:55 AM 35.8 °F 30.1 °F 27.1 °F 71% 29.83 in 10.0 mi WNW 6.9 mph - N/A   Clear
3:15 AM 35.8 °F 30.1 °F 27.3 °F 71% 29.83 in 10.0 mi NW 6.9 mph - N/A   Clear
3:35 AM 35.2 °F 30.3 °F 27.0 °F 72% 29.83 in 10.0 mi NW 5.8 mph - N/A   Clear
3:55 AM 34.9 °F 30.8 °F 26.8 °F 72% 29.83 in 10.0 mi NW 4.6 mph - N/A   Clear
4:15 AM 34.7 °F 29.6 °F 26.6 °F 72% 29.83 in 10.0 mi NW 5.8 mph - N/A   Clear
4:35 AM 34.5 °F 29.4 °F 26.6 °F 73% 29.84 in 10.0 mi NW 5.8 mph - N/A   Clear
4:55 AM 34.0 °F 28.0 °F 26.6 °F 74% 29.84 in 10.0 mi NW 6.9 mph - N/A   Clear
5:15 AM 33.4 °F 28.1 °F 27.0 °F 77% 29.85 in 10.0 mi WNW 5.8 mph - N/A   Clear
5:35 AM 33.3 °F 27.1 °F 26.6 °F 77% 29.86 in 10.0 mi NW 6.9 mph - N/A   Clear
5:55 AM 33.1 °F 27.7 °F 26.6 °F 77% 29.87 in 10.0 mi WNW 5.8 mph - N/A   Clear
6:15 AM 32.9 °F 26.7 °F 26.4 °F 77% 29.88 in 10.0 mi WNW 6.9 mph - N/A   Clear
6:35 AM 32.7 °F 27.3 °F 26.8 °F 79% 29.89 in 10.0 mi NW 5.8 mph - N/A   Clear
6:55 AM 32.7 °F 26.4 °F 27.1 °F 80% 29.90 in 10.0 mi NW 6.9 mph - N/A   Clear
7:15 AM 32.9 °F 27.5 °F 27.1 °F 79% 29.91 in 10.0 mi NW 5.8 mph - N/A   Clear
7:35 AM 33.1 °F 26.1 °F 27.5 °F 80% 29.91 in 10.0 mi NW 8.1 mph - N/A   Clear
7:55 AM 33.8 °F 27.0 °F 28.0 °F 79% 29.92 in 10.0 mi NW 8.1 mph - N/A   Clear
8:15 AM 34.3 °F 27.0 °F 28.0 °F 78% 29.93 in 10.0 mi NW 9.2 mph - N/A   Clear
8:35 AM 34.7 °F 27.5 °F 28.6 °F 78% 29.93 in 10.0 mi NW 9.2 mph 16.1 mph N/A   Scattered Clouds
8:55 AM 35.6 °F 28.6 °F 28.8 °F 76% 29.94 in 10.0 mi NW 9.2 mph - N/A   Scattered Clouds
9:15 AM 36.9 °F 30.1 °F 29.5 °F 75% 29.94 in 10.0 mi NW 9.2 mph - N/A   Clear
9:35 AM 37.4 °F 30.3 °F 29.5 °F 73% 29.95 in 10.0 mi NW 10.4 mph 17.3 mph N/A   Clear
9:55 AM 39.2 °F 32.5 °F 30.4 °F 71% 29.95 in 10.0 mi NW 10.4 mph - N/A   Clear
10:15 AM 39.4 °F 31.8 °F 30.6 °F 71% 29.96 in 10.0 mi NW 12.7 mph - N/A   Scattered Clouds
10:35 AM 41.0 °F 33.9 °F 31.5 °F 69% 29.97 in 10.0 mi NW 12.7 mph 16.1 mph N/A   Scattered Clouds
10:55 AM 41.4 °F 34.0 °F 31.5 °F 68% 29.98 in 10.0 mi NNW 13.8 mph - N/A   Scattered Clouds
11:15 AM 41.9 °F 35.0 °F 31.5 °F 66% 29.98 in 10.0 mi WNW 12.7 mph - N/A   Scattered Clouds
11:35 AM 43.5 °F 37.1 °F 32.4 °F 65% 29.99 in 10.0 mi WNW 12.7 mph 17.3 mph N/A   Clear
11:55 AM 44.6 °F 38.1 °F 32.4 °F 62% 29.99 in 10.0 mi NW 13.8 mph - N/A   Clear
12:15 PM 45.5 °F 39.9 °F 32.7 °F 61% 29.98 in 10.0 mi NW 11.5 mph - N/A   Clear
12:35 PM 45.5 °F 39.6 °F 32.2 °F 60% 29.98 in 10.0 mi NNW 12.7 mph 18.4 mph N/A   Clear
12:55 PM 46.4 °F 41.1 °F 32.2 °F 58% 29.98 in 10.0 mi NNW 11.5 mph 16.1 mph N/A   Clear
1:15 PM 47.8 °F - 32.9 °F 56% 29.98 in 10.0 mi NW 11.5 mph 19.6 mph N/A   Clear
1:35 PM 48.9 °F - 32.9 °F 54% 29.98 in 10.0 mi NNW 11.5 mph - N/A   Clear
1:55 PM 49.1 °F - 32.7 °F 53% 29.98 in 10.0 mi NW 10.4 mph 18.4 mph N/A   Clear
2:15 PM 49.6 °F - 32.9 °F 53% 29.98 in 10.0 mi NNW 10.4 mph 18.4 mph N/A   Clear
2:35 PM 48.7 °F - 31.3 °F 51% 29.98 in 10.0 mi NW 11.5 mph 19.6 mph N/A   Clear
2:55 PM 48.6 °F - 31.6 °F 52% 29.98 in 10.0 mi NW 11.5 mph - N/A   Scattered Clouds
3:15 PM 48.4 °F - 31.1 °F 51% 29.98 in 10.0 mi North 10.4 mph 16.1 mph N/A   Scattered Clouds
3:35 PM 50.2 °F - 32.5 °F 51% 29.98 in 10.0 mi NW 13.8 mph 18.4 mph N/A   Mostly Cloudy
3:55 PM 49.3 °F - 31.8 °F 51% 29.97 in 10.0 mi WNW 10.4 mph 19.6 mph N/A   Mostly Cloudy
4:15 PM 49.5 °F - 30.6 °F 48% 29.98 in 10.0 mi NW 11.5 mph - N/A   Scattered Clouds
4:35 PM 50.0 °F - 30.9 °F 48% 29.98 in 10.0 mi NNW 9.2 mph - N/A   Scattered Clouds
4:55 PM 50.0 °F - 30.0 °F 46% 29.98 in 10.0 mi WNW 11.5 mph 18.4 mph N/A   Scattered Clouds
5:15 PM 49.3 °F - 27.7 °F 43% 29.99 in 10.0 mi NW 9.2 mph 18.4 mph N/A   Scattered Clouds
5:35 PM 48.6 °F - 28.0 °F 45% 29.99 in 10.0 mi NW 11.5 mph 20.7 mph N/A   Clear
5:55 PM 48.2 °F - 24.6 °F 40% 29.99 in 10.0 mi NW 11.5 mph 16.1 mph N/A   Clear
6:15 PM 47.8 °F - 23.4 °F 38% 29.99 in 10.0 mi WNW 13.8 mph 18.4 mph N/A   Clear
6:35 PM 47.3 °F - 25.7 °F 43% 30.00 in 10.0 mi NW 10.4 mph - N/A   Clear
6:55 PM 46.8 °F - 23.5 °F 40% 30.00 in 10.0 mi NW 9.2 mph - N/A   Clear
7:15 PM 45.7 °F 42.0 °F 23.2 °F 41% 30.00 in 10.0 mi NW 6.9 mph - N/A   Clear
7:35 PM 44.6 °F 41.4 °F 24.1 °F 44% 30.00 in 10.0 mi NW 5.8 mph - N/A   Clear
7:55 PM 43.5 °F 40.1 °F 23.5 °F 45% 30.01 in 10.0 mi NW 5.8 mph - N/A   Clear
8:15 PM 42.6 °F 39.9 °F 24.1 °F 48% 30.01 in 10.0 mi NW 4.6 mph - N/A   Clear
8:35 PM 41.9 °F 38.2 °F 24.3 °F 50% 30.01 in 10.0 mi NW 5.8 mph - N/A   Clear
8:55 PM 41.7 °F 39.8 °F 23.2 °F 48% 30.01 in 10.0 mi WNW 3.5 mph - N/A   Clear
9:15 PM 41.0 °F - 22.1 °F 47% 30.01 in 10.0 mi Calm Calm - N/A   Clear
9:35 PM 37.0 °F - 23.7 °F 59% 30.01 in 10.0 mi Calm Calm - N/A   Clear
9:55 PM 34.0 °F - 25.5 °F 71% 30.01 in 10.0 mi Calm Calm - N/A   Clear
10:15 PM 32.0 °F - 26.2 °F 79% 30.00 in 10.0 mi Calm Calm - N/A   Clear
10:35 PM 32.5 °F - 25.9 °F 76% 29.99 in 10.0 mi Calm Calm - N/A   Clear
10:55 PM 31.1 °F - 26.2 °F 82% 29.99 in 10.0 mi Calm Calm - N/A   Clear
11:15 PM 31.3 °F - 25.7 °F 80% 29.99 in 10.0 mi Calm Calm - N/A   Clear
11:35 PM 30.6 °F - 25.7 °F 82% 29.99 in 10.0 mi Calm Calm - N/A   Clear
11:55 PM 31.1 °F - 25.2 °F 79% 29.99 in 10.0 mi Calm Calm - N/A   Clear